This is the latest recevied weather packets stored in our database for station/object KE8URB. If no packets are shown the sender has not sent any weather packets the latest 10 day(s).
| Time | Temp. | Humidity | Pressure | Rain* | Wind** | Luminosity | Snow |
|---|---|---|---|---|---|---|---|
| 1787602480 | 22.22° C | 67% | 1017.8 hPa | 0 mm | - | 521 W/m² | - |
| 1787602175 | 22.22° C | 62% | 1017.7 hPa | 0 mm | - | 89 W/m² | - |
| 1787601874 | 21.67° C | 63% | 1017.7 hPa | 0 mm | - | 530 W/m² | - |
| 1787601570 | 20.56° C | 66% | 1017.8 hPa | 0 mm | - | 141 W/m² | - |
| 1787601265 | 21.11° C | 67% | 1017.5 hPa | 0 mm | - | 55 W/m² | - |
| 1787600964 | 21.67° C | 64% | 1017.7 hPa | 0 mm | - | 93 W/m² | - |
| 1787600659 | 21.67° C | 64% | 1018 hPa | 0 mm | - | 205 W/m² | - |
| 1787600354 | 21.67° C | 64% | 1017.7 hPa | 0 mm | - | 592 W/m² | - |
| 1787600050 | 21.67° C | 62% | 1017.5 hPa | 0 mm | - | 517 W/m² | - |
| 1787599746 | 21.67° C | 66% | 1017.8 hPa | 0 mm | - | 615 W/m² | - |
| 1787599443 | 22.22° C | 65% | 1017.5 hPa | 0 mm | - | 625 W/m² | - |
| 1787599139 | 21.67° C | 63% | 1017.5 hPa | 0 mm | - | 611 W/m² | - |
| 1787598834 | 21.11° C | 65% | 1017.8 hPa | 0 mm | - | 598 W/m² | - |
| 1787598530 | 21.67° C | 66% | 1017.9 hPa | 0 mm | - | 633 W/m² | - |
| 1787598230 | 21.11° C | 67% | 1018 hPa | 0 mm | - | 667 W/m² | - |
| 1787597926 | 21.11° C | 67% | 1017.9 hPa | 0 mm | - | 223 W/m² | - |
| 1787597625 | 21.11° C | 66% | 1018.2 hPa | 0 mm | - | 593 W/m² | - |
| 1787597324 | 21.11° C | 64% | 1018 hPa | 0 mm | - | 241 W/m² | - |
| 1787597020 | 21.11° C | 67% | 1017.9 hPa | 0 mm | - | 594 W/m² | - |
| 1787596716 | 21.67° C | 66% | 1018 hPa | 0 mm | - | 457 W/m² | - |
| 1787596411 | 20.56° C | 70% | 1018 hPa | 0 mm | - | 121 W/m² | - |
| 1787596107 | 20° C | 67% | 1018.1 hPa | 0 mm | - | 258 W/m² | - |
| 1787595803 | 20.56° C | 66% | 1018.1 hPa | 0 mm | - | 160 W/m² | - |
| 1787595498 | 20.56° C | 66% | 1018 hPa | 0 mm | - | 112 W/m² | - |
| 1787595198 | 20° C | 68% | 1018.1 hPa | 0 mm | - | 97 W/m² | - |
* Rain latest hour (hover to see other rain measurements)
** Current wind speed in m/s (hover to see current wind gust speed)